Date String (YYYY-MM-DD hh:mm:ss) UTC,Instrument flags,Ambient pressure (hPa),Sample flow (lpm),Bypass flow (lpm),Sample temperature (°C),Ambient temperature (°C),ASC tube jacket temperature (°C),LED temperature (°C),Box temperature (°C),Sample RH (%),Span deviation,Mass concentration (μg/m³),Mass concentration (μg/m³),Mass concentration (μg/m³)
DateTimeUTC,F1_M11,P_M11,Q1_M11,Q2_M11,T1_M11,T2_M11,T3_M11,T4_M11,T5_M11,U1_M11,ZSPAN_M11,X0_M11,X2_M11,X1_M11
2021-11-22 09:00:00,,0831.2,5.00,0.00,24.5,23.5,00.0,33.5,26.2,05.4,0000.0,0003.52,0001.78,0001.44
2021-11-22 09:01:00,,0831.2,5.00,0.00,24.4,23.5,00.0,33.5,26.2,05.1,0000.0,0003.31,0001.65,0001.36
2021-11-22 09:02:00,,0831.2,4.99,0.00,24.5,23.5,00.0,33.5,26.2,05.0,0000.0,0002.95,0001.47,0001.23
2021-11-22 09:03:00,,0831.2,5.01,0.00,24.4,23.5,00.0,33.5,26.1,04.8,0000.0,0002.83,0001.36,0001.15
2021-11-22 09:04:00,,0831.2,4.98,0.00,24.4,23.5,00.0,33.5,26.1,04.7,0000.0,0003.36,0001.29,0001.11
2021-11-22 09:05:00,,0831.2,5.00,0.00,24.4,23.5,00.0,33.5,26.1,04.8,0000.0,0003.06,0001.21,0001.04
2021-11-22 09:06:00,,0831.2,5.00,0.00,24.5,23.5,00.0,33.5,26.2,04.9,0000.0,0002.47,0001.16,0000.95
2021-11-22 09:07:00,,0831.2,4.99,0.00,24.5,23.5,00.0,33.5,26.2,05.1,0000.0,0002.41,0001.09,0000.87
2021-11-22 09:08:00,,0831.1,5.01,0.00,24.4,23.5,00.0,33.5,26.2,05.2,0000.0,0002.32,0001.03,0000.81
2021-11-22 09:09:00,,0831.1,5.00,0.00,24.4,23.5,00.0,33.5,26.2,05.1,0000.0,0002.20,0000.95,0000.75
2021-11-22 09:10:00,,0831.2,4.99,0.00,24.4,23.5,00.0,33.5,26.2,05.2,0000.0,0002.16,0000.94,0000.74
2021-11-22 09:11:00,,0831.2,5.00,0.00,24.5,23.5,00.0,33.5,26.2,05.6,0000.0,0002.15,0000.93,0000.73
2021-11-22 09:12:00,,0831.2,4.99,0.00,24.5,23.6,00.0,33.5,26.3,08.6,0000.0,0002.39,0001.09,0000.86
2021-11-22 09:13:00,,0831.3,5.00,0.00,24.5,23.6,00.0,33.5,26.3,10.0,0000.0,0002.72,0001.37,0001.13
2021-11-22 09:14:00,,0831.3,5.01,0.00,24.5,23.6,00.0,33.5,26.3,10.4,0000.0,0003.15,0001.75,0001.48
2021-11-22 09:15:00,,0831.2,4.98,0.00,24.5,23.6,00.0,33.5,26.3,10.8,0000.0,0003.12,0002.20,0001.87
2021-11-22 09:16:00,,0831.3,5.01,0.00,24.5,23.6,00.0,33.5,26.3,10.9,0000.0,0005.13,0002.63,0002.26
2021-11-22 09:17:00,,0831.4,5.00,0.00,24.4,23.6,00.0,33.5,26.2,10.9,0000.0,0006.05,0002.99,0002.63
2021-11-22 09:18:00,,0831.3,4.99,0.00,24.4,23.5,00.0,33.5,26.2,10.7,0000.0,0006.38,0003.22,0002.94
2021-11-22 09:19:00,,0831.3,5.00,0.00,24.4,23.5,00.0,33.5,26.2,10.5,0000.0,0006.77,0003.41,0003.20
2021-11-22 09:20:00,,0831.2,4.99,0.00,24.4,23.5,00.0,33.5,26.2,10.8,0000.0,0007.27,0003.60,0003.36
2021-11-22 09:21:00,,0831.2,5.00,0.00,24.4,23.5,00.0,33.5,26.2,11.0,0000.0,0007.62,0003.83,0003.56
2021-11-22 09:22:00,,0831.3,5.01,0.00,24.4,23.5,00.0,33.5,26.2,11.1,0000.0,0008.29,0004.04,0003.76
2021-11-22 09:23:00,,0831.4,4.99,0.00,24.4,23.5,00.0,33.4,26.2,11.1,0000.0,0008.70,0004.27,0003.94
2021-11-22 09:24:00,,0831.4,4.99,0.00,24.4,23.5,00.0,33.4,26.2,11.1,0000.0,0009.19,0004.36,0004.00
2021-11-22 09:25:00,,0831.4,5.00,0.00,24.4,23.5,00.0,33.4,26.2,11.1,0000.0,0009.85,0004.44,0004.02
2021-11-22 09:26:00,,0831.4,5.01,0.00,24.4,23.5,00.0,33.4,26.1,11.1,0000.0,0009.88,0004.44,0004.02
2021-11-22 09:27:00,,0831.5,4.99,0.00,24.4,23.5,00.0,33.4,26.1,11.3,0000.0,0009.54,0004.43,0004.03
2021-11-22 09:28:00,,0831.4,5.01,0.00,24.3,23.5,00.0,33.4,26.1,11.1,0000.0,0008.84,0004.44,0004.04
2021-11-22 09:29:00,,0831.5,5.01,0.00,24.3,23.5,00.0,33.4,26.1,10.8,0000.0,0008.79,0004.45,0004.04
2021-11-22 09:30:00,,0831.5,4.99,0.00,24.3,23.5,00.0,33.4,26.1,11.0,0000.0,0009.05,0004.49,0004.04
2021-11-22 09:31:00,,0831.5,5.01,0.00,24.3,23.5,00.0,33.4,26.1,11.2,0000.0,0009.17,0004.52,0004.06
2021-11-22 09:32:00,,0831.5,5.00,0.00,24.3,23.5,00.0,33.4,26.1,11.0,0000.0,0009.12,0004.52,0004.06
2021-11-22 09:33:00,,0831.5,5.00,0.00,24.3,23.4,00.0,33.4,26.1,11.0,0000.0,0008.93,0004.52,0004.06
2021-11-22 09:34:00,,0831.5,4.99,0.00,24.3,23.4,00.0,33.3,26.0,11.2,0000.0,0009.47,0004.52,0004.07
2021-11-22 09:35:00,,0831.5,5.01,0.00,24.3,23.4,00.0,33.3,26.0,11.2,0000.0,0009.18,0004.51,0004.07
2021-11-22 09:36:00,,0831.5,4.99,0.00,24.3,23.4,00.0,33.3,26.0,11.1,0000.0,0008.63,0004.47,0004.06
2021-11-22 09:37:00,,0831.5,4.99,0.00,24.2,23.4,00.0,33.3,26.0,11.2,0000.0,0008.75,0004.46,0004.06
2021-11-22 09:38:00,,0831.5,5.01,0.00,24.2,23.4,00.0,33.3,26.0,11.3,0000.0,0009.57,0004.46,0004.05
2021-11-22 09:39:00,,0831.5,5.00,0.00,24.2,23.4,00.0,33.3,26.0,11.4,0000.0,0009.81,0004.46,0004.04
2021-11-22 09:40:00,,0831.5,5.01,0.00,24.2,23.3,00.0,33.3,26.0,11.0,0000.0,0009.87,0004.47,0004.05
2021-11-22 09:41:00,,0831.4,5.00,0.00,24.2,23.3,00.0,33.3,26.0,10.0,0000.0,0009.85,0004.47,0004.03
2021-11-22 09:42:00,,0831.5,4.99,0.00,24.2,23.4,00.0,33.3,26.0,10.0,0000.0,0009.72,0004.39,0003.98
2021-11-22 09:43:00,,0831.5,5.01,0.00,24.2,23.4,00.0,33.3,26.0,10.4,0000.0,0009.79,0004.33,0003.94
2021-11-22 09:44:00,,0831.4,4.99,0.00,24.2,23.4,00.0,33.2,26.0,11.1,0000.0,0009.81,0004.33,0003.95
2021-11-22 09:45:00,,0831.5,5.00,0.00,24.2,23.4,00.0,33.3,26.0,11.1,0000.0,0009.06,0004.34,0003.94
2021-11-22 09:46:00,,0831.4,5.02,0.00,24.2,23.4,00.0,33.2,26.0,11.0,0000.0,0009.06,0004.32,0003.93
2021-11-22 09:47:00,,0831.4,4.98,0.00,24.2,23.4,00.0,33.2,26.0,11.0,0000.0,0009.47,0004.34,0003.94
2021-11-22 09:48:00,,0831.4,5.01,0.00,24.2,23.4,00.0,33.2,26.0,11.0,0000.0,0010.14,0004.37,0003.96
2021-11-22 09:49:00,,0831.3,4.99,0.00,24.2,23.4,00.0,33.2,26.0,10.8,0000.0,0009.69,0004.40,0003.97
2021-11-22 09:50:00,,0831.4,5.00,0.00,24.2,23.4,00.0,33.2,26.0,11.0,0000.0,0009.17,0004.43,0003.97
2021-11-22 09:51:00,,0831.4,5.01,0.00,24.2,23.4,00.0,33.2,26.0,10.8,0000.0,0009.14,0004.43,0003.96
2021-11-22 09:52:00,,0831.3,4.99,0.00,24.2,23.4,00.0,33.2,26.0,10.7,0000.0,0008.94,0004.38,0003.98
2021-11-22 09:53:00,,0831.3,5.00,0.00,24.2,23.4,00.0,33.2,26.0,10.9,0000.0,0009.00,0004.45,0004.05
2021-11-22 09:54:00,,0831.3,5.01,0.00,24.3,23.4,00.0,33.2,26.0,11.0,0000.0,0009.30,0004.52,0004.09
2021-11-22 09:55:00,,0831.3,4.99,0.00,24.3,23.4,00.0,33.3,26.0,11.0,0000.0,0009.54,0004.55,0004.09
2021-11-22 09:56:00,,0831.3,5.02,0.00,24.3,23.4,00.0,33.3,26.0,11.0,0000.0,0009.58,0004.55,0004.09
2021-11-22 09:57:00,,0831.3,4.99,0.00,24.3,23.4,00.0,33.3,26.0,11.0,0000.0,0009.47,0004.54,0004.10
2021-11-22 09:58:00,,0831.4,5.00,0.00,24.3,23.4,00.0,33.3,26.0,11.1,0000.0,0009.20,0004.53,0004.11
2021-11-22 09:59:00,,0831.3,5.00,0.00,24.3,23.4,00.0,33.3,26.0,11.2,0000.0,0008.46,0004.51,0004.10
